Home   Weather   Kitakyushu   Past weeks

Flag for Japan Past Weather in Kitakyushu, Japan — Yesterday and Last 2 Weeks

66 °F

Partly sunny.

Feels Like: 66 °F
Forecast: 65 / 68 °F
Wind: 12 mph from Northeast

Location: Kitakyushu Airport

Current Time: Oct 22, 2016 at 4:06:15 PM

Latest Report: Oct 22, 2016 at 3:00 PM

Visibility: N/A

Pressure: 29.80 "Hg

Humidity: 88%

Dew Point: 63 °F

Location of KitakyushuLocation

Past Weather in Kitakyushu — Graph


Kitakyushu Temperature Yesterday

Maximum temperature yesterday: 70 °F (at 12:00 AM)
Minimum temperature yesterday: 66 °F (at 6:00 AM)
Average temperature yesterday: 68 °F

High & Low Weather Summary for the Past Weeks

High81 °F (Oct 8, 12:00 PM)94% (Oct 8, 9:00 PM)30.27 "Hg (Oct 8, 9:00 PM)
Low61 °F (Oct 15, 5:00 AM)38% (Oct 14, 10:00 AM)29.71 "Hg (Oct 8, 10:00 PM)
Average69 °F70%30.04 "Hg
* Reported Oct 7 3:00 PM — Oct 22 3:00 PM, Kitakyushu, Weather by CustomWeather, © 2016

Note: Actual official high and low records may vary slightly from our data, if they occured in-between our weather recording intervals... More about our weather records


Kitakyushu Weather History for the Previous 24 Hours

Scroll right to see more
Time TempWeatherWind HumidityBarometerVisibility
3:00 PM
Sat, Oct 22
66 °FPartly sunny.12 mph88%29.80 "HgN/A
2:47 PM68 °FPartly sunny.16 mph83%29.80 "HgN/A
2:00 PM66 °FPartly sunny.15 mph88%29.80 "HgN/A
1:00 PM66 °FLight rain. Partly sunny.17 mph88%29.83 "HgN/A
12:00 PM66 °FLight rain. Partly sunny.15 mph88%29.86 "Hg5 mi
11:00 AM66 °FLight rain. Partly sunny.17 mph88%29.89 "HgN/A
10:00 AM66 °FLight rain. Partly sunny.14 mph88%29.92 "Hg4 mi
9:00 AM64 °FLight rain. Broken clouds.12 mph88%29.92 "Hg4 mi
8:00 AM66 °FLight rain. Partly sunny.8 mph83%29.95 "Hg4 mi
7:00 AM64 °FLight rain. Partly sunny.5 mph94%29.95 "Hg4 mi
6:00 AM66 °FLight rain. Passing clouds.13 mph83%29.95 "Hg5 mi
5:00 AM66 °FLight rain. Partly cloudy.7 mph83%29.95 "HgN/A
4:00 AM66 °FPartly cloudy.3 mph83%29.95 "HgN/A
3:00 AM66 °FPartly cloudy.3 mph83%29.98 "HgN/A
2:00 AM68 °FPartly cloudy.5 mph78%29.98 "HgN/A
1:00 AM66 °FPassing clouds.6 mph83%29.98 "HgN/A
12:00 AM66 °FPassing clouds.6 mph83%30.01 "HgN/A
11:00 PM
Fri, Oct 21
66 °FPassing clouds.6 mph83%30.01 "HgN/A
10:00 PM66 °FPassing clouds.5 mph83%30.01 "HgN/A
9:00 PM68 °FPartly cloudy.5 mph73%30.01 "HgN/A
8:00 PM68 °FPartly cloudy.5 mph69%30.04 "HgN/A
7:00 PM68 °FLight rain. Partly cloudy.2 mph69%30.04 "HgN/A
6:00 PM68 °FLight rain. Partly cloudy.5 mph69%30.04 "HgN/A
5:00 PM68 °FLight rain. Broken clouds.3 mph69%30.04 "HgN/A
4:00 PM68 °FLight rain. Partly sunny.2 mph73%30.04 "HgN/A
Weather by CustomWeather, © 2016

See weather overviewHow to use our weather pages